CAPE
133 292 405 806 1127 1123 1193 1273 1250 1595 1237 806 47 0 0 0 0 0 0 0 0 0 0 0 0 0 0 0 0 0 0 3 3 0 0 1 0 0 0 0 5 34 55
613 809 1019 968 1229 1377 1410 1318 1301 1365 692 22 0 0 0 0 0 0 0 0 0 0 0 0 0 0 0 0 0 0 0 0 4 0 0 0 0 0 0 0 0 1 0
931 1125 1173 1108 1244 1373 1402 1609 1380 327 5 0 0 0 0 0 0 0 0 0 0 0 0 0 0 0 0 0 0 0 0 0 0 1 0 0 0 0 0 1 0 0 0
940 1038 1156 1203 1323 1311 1600 1361 281 5 0 0 0 0 0 0 0 0 0 0 0 0 0 0 0 0 0 0 0 0 0 0 0 1 1 0 0 0 0 1 0 0 0
1050 1133 1214 1313 1433 1478 919 97 3 0 0 0 0 0 0 0 0 0 0 0 0 0 0 0 0 0 0 0 0 0 0 0 0 0 0 0 0 0 0 0 0 0 0
1194 1242 1336 1418 841 591 186 3 0 0 0 0 0 0 0 0 0 0 0 0 0 0 0 0 0 0 0 0 0 0 0 0 0 0 0 0 0 0 0 0 0 0 0
1356 1505 1377 832 386 79 0 0 0 0 0 0 0 0 0 0 0 0 0 0 0 0 0 0 0 0 0 0 0 0 0 0 0 0 0 0 0 0 0 0 0 0 0
1423 1392 884 482 48 1 0 0 0 0 0 0 0 0 0 0 0 0 0 0 0 0 0 0 0 0 0 0 0 0 0 0 0 0 0 0 0 0 0 0 0 0 0
1249 897 578 103 1 0 0 0 0 0 0 0 0 0 0 0 0 0 0 0 0 0 0 0 0 0 0 0 0 0 0 0 0 0 0 0 0 0 0 0 0 0 0
842 573 184 0 0 0 0 0 0 0 0 0 0 0 0 0 0 0 0 0 0 0 0 0 0 0 0 0 0 0 0 0 0 0 0 0 0 0 0 0 0 0 0
318 23 0 0 0 0 0 0 0 0 0 0 0 0 0 0 0 0 0 0 0 0 0 0 0 0 0 0 0 0 0 0 0 0 0 0 0 0 0 0 0 0 0
0 0 0 0 0 0 0 0 0 0 0 0 0 0 0 0 0 0 0 0 0 0 0 0 0 0 0 0 0 0 0 0 0 0 0 0 0 0 0 0 0 0 0
0 0 0 0 0 0 0 0 0 0 0 0 0 0 0 0 0 0 0 0 0 0 0 0 0 0 0 0 0 0 0 0 0 0 0 0 0 0 0 0 0 0 0
0 0 0 0 0 0 0 0 0 0 0 0 0 0 0 0 0 0 0 0 0 0 0 0 0 0 0 0 0 0 0 0 0 0 0 0 0 0 0 0 0 0 0
0 0 0 0 0 0 0 0 0 0 0 0 0 0 0 0 0 0 0 0 0 0 0 0 0 0 0 0 0 0 0 0 0 0 0 0 0 0 0 0 0 0 0
0 0 0 0 0 0 0 0 0 0 0 0 0 0 0 0 0 0 0 0 0 0 0 0 0 0 0 0 0 0 0 0 0 0 0 0 0 0 0 0 0 0 0
0 0 0 0 0 0 0 0 0 0 0 0 0 0 0 0 0 0 0 0 0 0 0 0 0 0 0 0 0 0 0 0 0 0 0 0 0 0 0 0 0 0 0
0 0 0 0 0 0 0 0 0 0 0 0 0 0 0 0 0 0 0 0 0 0 0 0 0 0 0 0 0 0 0 0 0 0 0 0 0 0 0 0 0 0 0
0 0 0 0 0 0 0 0 0 0 0 0 0 0 0 0 0 0 0 0 0 0 0 0 0 0 0 0 0 0 0 0 0 0 0 0 0 0 0 0 0 0 0
0 0 0 0 0 0 0 0 0 0 0 0 0 0 0 0 0 0 0 0 0 0 0 0 0 0 0 0 0 0 0 0 0 0 0 0 0 0 0 0 0 0 0
0 0 0 0 0 0 0 0 0 0 0 0 0 0 0 0 0 0 0 0 0 0 0 0 0 0 0 0 0 0 0 0 0 0 0 0 0 0 0 0 0 0 0
0 0 0 0 0 0 0 0 0 0 0 0 0 0 0 0 0 0 0 0 0 0 0 0 0 0 0 0 0 0 0 0 0 0 0 0 0 0 0 0 0 0 0
0 0 0 0 0 0 0 0 0 0 0 0 0 0 0 0 0 0 0 0 0 0 0 0 0 0 0 0 0 0 0 0 0 0 0 0 0 0 0 0 0 0 0
0 0 0 0 0 0 0 0 0 0 0 0 0 0 0 0 0 0 0 0 0 0 0 0 0 0 0 0 0 0 0 0 0 0 0 0 0 0 0 0 0 0 0
0 0 0 0 0 0 0 0 0 0 0 0 0 0 0 0 0 0 0 0 0 0 0 0 0 0 0 0 0 0 0 0 0 0 0 0 0 0 0 0 0 0 0
0 0 0 0 0 0 0 0 0 0 0 0 0 0 0 0 0 0 0 0 0 0 0 0 0 0 0 0 0 0 0 0 0 0 0 0 0 0 0 0 0 0 0
CIN
-754 -656 -604 -504 -385 -354 -312 -265 -230 -130 -206 -315 -581 0 0 0 0 0 0 0 0 0 0 0 0 0 0 0 0 0 0 0 0 0 0 -1 0 0 0 0 -34 -172 -180
-657 -581 -520 -498 -385 -315 -282 -260 -217 -186 -354 -866 0 0 0 0 0 0 0 0 0 0 0 0 0 0 0 0 0 0 0 -1 0 0 0 0 0 0 0 0 0 -6 -9
-621 -553 -501 -472 -405 -354 -306 -197 -213 -543 -176 0 0 0 0 0 0 0 0 0 0 0 0 0 0 0 0 0 0 0 0 0 0 0 -1 -3 0 0 0 -6 -1 0 0
-673 -607 -525 -478 -430 -401 -273 -286 -636 -242 0 0 0 0 0 0 0 0 0 0 0 0 0 0 0 0 0 0 0 0 0 0 0 0 -1 -1 0 0 0 -1 0 0 0
-675 -606 -546 -487 -417 -365 -480 -853 -835 0 0 0 0 0 0 0 0 0 0 0 0 0 0 0 0 0 0 0 0 0 0 0 0 0 0 0 0 0 0 0 0 0 0
-667 -608 -539 -465 -584 -627 -789 -1098 0 0 0 0 0 0 0 0 0 0 0 0 0 0 0 0 0 0 0 0 0 0 0 0 0 0 0 0 0 0 0 0 0 0 0
-662 -577 -547 -653 -757 -922 0 0 0 0 0 0 0 0 0 0 0 0 0 0 0 0 0 0 0 0 0 0 0 0 0 0 0 0 0 0 0 0 0 0 0 0 0
-657 -603 -685 -767 -994 -318 0 0 0 0 0 0 0 0 0 0 0 0 0 0 0 0 0 0 0 0 0 0 0 0 0 0 0 0 0 0 0 0 0 0 0 0 0
-698 -748 -788 -977 -207 0 0 0 0 0 0 0 0 0 0 0 0 0 0 0 0 0 0 0 0 0 0 0 0 0 0 0 0 0 0 0 0 0 0 0 0 0 0
-816 -844 -955 -137 0 0 0 0 0 0 0 0 0 0 0 0 0 0 0 0 0 0 0 0 0 0 0 0 0 0 0 0 0 0 0 0 0 0 0 0 0 0 0
-968 -706 0 0 0 0 0 0 0 0 0 0 0 0 0 0 0 0 0 0 0 0 0 0 0 0 0 0 0 0 0 0 0 0 0 0 0 0 0 0 0 0 0
0 0 0 0 0 0 0 0 0 0 0 0 0 0 0 0 0 0 0 0 0 0 0 0 0 0 0 0 0 0 0 0 0 0 0 0 0 0 0 0 0 0 0
0 0 0 0 0 0 0 0 0 0 0 0 0 0 0 0 0 0 0 0 0 0 0 0 0 0 0 0 0 0 0 0 0 0 0 0 0 0 0 0 0 0 0
0 0 0 0 0 0 0 0 0 0 0 0 0 0 0 0 0 0 0 0 0 0 0 0 0 0 0 0 0 0 0 0 0 0 0 0 0 0 0 0 0 0 0
0 0 0 0 0 0 0 0 0 0 0 0 0 0 0 0 0 0 0 0 0 0 0 0 0 0 0 0 0 0 0 0 0 0 0 0 0 0 0 0 0 0 0
0 0 0 0 0 0 0 0 0 0 0 0 0 0 0 0 0 0 0 0 0 0 0 0 0 0 0 0 0 0 0 0 0 0 0 0 0 0 0 0 0 0 0
0 0 0 0 0 0 0 0 0 0 0 0 0 0 0 0 0 0 0 0 0 0 0 0 0 0 0 0 0 0 0 0 0 0 0 0 0 0 0 0 0 0 0
0 0 0 0 0 0 0 0 0 0 0 0 0 0 0 0 0 0 0 0 0 0 0 0 0 0 0 0 0 0 0 0 0 0 0 0 0 0 0 0 0 0 0
0 0 0 0 0 0 0 0 0 0 0 0 0 0 0 0 0 0 0 0 0 0 0 0 0 0 0 0 0 0 0 0 0 0 0 0 0 0 0 0 0 0 0
0 0 0 0 0 0 0 0 0 0 0 0 0 0 0 0 0 0 0 0 0 0 0 0 0 0 0 0 0 0 0 0 0 0 0 0 0 0 0 0 0 0 0
0 0 0 0 0 0 0 0 0 0 0 0 0 0 0 0 0 0 0 0 0 0 0 0 0 0 0 0 0 0 0 0 0 0 0 0 0 0 0 0 0 0 0
0 0 0 0 0 0 0 0 0 0 0 0 0 0 0 0 0 0 0 0 0 0 0 0 0 0 0 0 0 0 0 0 0 0 0 0 0 0 0 0 0 0 0
0 0 0 0 0 0 0 0 0 0 0 0 0 0 0 0 0 0 0 0 0 0 0 0 0 0 0 0 0 0 0 0 0 0 0 0 0 0 0 0 0 0 0
0 0 0 0 0 0 0 0 0 0 0 0 0 0 0 0 0 0 0 0 0 0 0 0 0 0 0 0 0 0 0 0 0 0 0 0 0 0 0 0 0 0 0
0 0 0 0 0 0 0 0 0 0 0 0 0 0 0 0 0 0 0 0 0 0 0 0 0 0 0 0 0 0 0 0 0 0 0 0 0 0 0 0 0 0 0
0 0 0 0 0 0 0 0 0 0 0 0 0 0 0 0 0 0 0 0 0 0 0 0 0 0 0 0 0 0 0 0 0 0 0 0 0 0 0 0 0 0 0
Wind_Speed
13 12 11 9 8 6 6 5 4 3 4 5 7 8 7 7 6 6 5 5 6 5 4 5 5 6 4 4 4 3 3 3 5 6 5 9 7 8 10 9 10 9 7
13 11 10 7 7 7 6 5 6 5 5 8 8 8 7 6 5 6 5 4 5 5 4 5 6 5 6 5 4 5 4 3 4 8 10 9 8 8 7 10 8 8 7
11 10 8 8 8 9 6 6 6 9 8 8 8 8 6 5 5 6 5 5 5 4 5 5 5 5 6 5 5 4 3 4 4 4 7 7 4 4 8 6 7 7 6
10 10 11 11 10 7 7 8 10 9 10 9 8 7 6 5 6 5 5 5 5 5 5 5 4 4 4 6 5 5 4 5 5 6 6 8 3 4 4 6 10 6 9
11 12 12 10 7 8 10 11 11 10 9 10 9 6 6 5 3 4 4 4 5 5 5 3 4 8 8 7 3 4 5 4 4 5 5 4 4 6 6 6 6 10 10
11 11 10 10 10 10 11 12 11 11 11 10 7 7 7 4 7 6 5 5 5 5 3 4 5 6 7 11 12 11 7 4 4 3 3 5 6 6 3 6 5 5 7
12 12 12 12 12 12 12 12 12 11 10 9 7 7 7 4 7 8 8 4 4 3 3 3 5 4 7 6 11 11 10 10 7 3 5 4 5 4 5 7 6 5 7
13 13 12 13 13 13 12 12 11 10 10 9 7 6 7 4 8 8 8 4 3 2 1 3 5 6 7 7 7 7 8 7 6 4 5 10 8 10 6 6 6 7 9
14 14 14 15 15 14 12 12 10 10 7 7 6 7 7 5 6 7 6 4 3 3 3 4 5 7 10 11 5 6 8 7 10 16 16 15 14 16 12 5 6 6 7
15 15 14 15 16 14 12 12 7 9 8 7 7 6 9 6 6 6 5 2 3 3 5 4 7 7 11 10 5 5 7 7 9 11 12 13 11 9 13 5 5 5 5
14 14 14 13 14 12 11 6 8 8 9 7 8 5 6 5 4 6 4 2 2 2 3 4 4 11 9 10 8 5 4 7 10 6 7 7 8 7 7 7 5 4 7
16 15 14 13 10 10 12 7 8 9 9 8 7 5 3 3 5 5 5 5 4 1 3 3 5 8 9 10 7 11 12 9 5 5 5 6 7 8 11 10 11 9 6
14 15 13 12 10 10 11 9 7 7 8 8 6 5 4 2 1 4 5 5 5 1 2 4 4 8 9 7 11 12 9 5 5 5 5 5 5 8 10 10 10 10 12
13 13 13 13 11 7 6 6 7 6 6 7 6 5 4 3 2 1 1 1 3 3 4 4 4 5 6 5 6 7 4 5 5 4 5 6 6 7 7 5 5 9 7
11 10 11 10 10 8 6 3 5 2 6 7 5 6 7 4 4 6 5 1 1 1 3 3 4 4 4 5 5 5 5 4 6 6 4 6 6 7 6 9 6 7 7
12 9 8 9 8 7 7 6 11 5 7 7 10 8 2 4 8 7 3 3 3 1 2 3 3 3 4 4 4 5 4 7 5 5 5 5 6 7 8 9 7 7 8
14 11 8 10 9 9 7 8 8 6 11 9 9 10 8 9 8 5 4 4 7 5 3 1 1 2 3 4 4 3 4 4 5 4 4 6 6 7 9 8 8 8 9
11 15 10 9 9 8 7 6 7 8 6 4 4 5 8 9 7 5 4 5 3 4 1 2 1 2 3 4 4 3 4 5 4 5 5 6 6 6 7 8 8 8 8
12 9 9 8 7 7 6 5 5 5 5 5 3 3 5 6 3 1 2 3 2 1 1 2 1 1 2 3 3 4 4 5 5 4 5 5 6 5 8 7 8 13 10
9 16 11 9 8 6 5 6 5 5 5 5 5 5 4 4 2 2 1 2 2 2 2 3 2 2 3 3 4 4 5 5 6 5 5 5 6 6 6 8 7 7 7
8 10 15 8 8 7 7 7 6 5 5 5 5 5 8 5 5 4 4 3 3 3 4 3 2 1 2 3 4 4 5 4 4 5 5 5 5 7 7 7 6 6 5
9 10 9 9 8 8 7 7 7 6 5 5 4 4 9 3 4 4 4 4 3 4 4 4 3 2 0 0 2 3 4 5 5 6 6 6 5 6 6 6 6 5 5
9 10 9 7 8 9 7 6 7 6 5 5 5 5 5 4 5 5 5 4 4 4 4 3 3 2 1 2 2 2 4 5 4 4 6 6 6 6 5 5 4 5 6
9 10 10 8 7 7 8 7 6 7 7 7 7 6 6 5 5 6 5 5 5 5 4 4 3 3 1 3 3 3 3 4 4 4 6 5 5 6 4 4 5 6 7
8 9 9 9 8 7 7 6 6 7 6 6 6 5 5 5 5 5 5 5 5 5 5 4 3 3 2 4 6 7 8 6 5 7 4 4 5 7 5 4 5 6 5
8 8 7 6 6 6 6 6 6 7 7 6 6 6 6 6 6 6 6 6 6 5 5 4 3 3 2 3 6 8 7 8 7 9 5 4 5 5 5 6 8 5 7
Wind_Direction
203 200 199 192 190 183 197 212 197 161 155 113 98 90 82 73 62 75 78 49 67 59 45 53 50 36 15 357 352 343 350 330 301 307 317 313 305 305 311 314 310 302 302
198 191 189 169 171 184 195 187 176 163 113 108 107 98 90 80 68 71 68 60 68 67 61 63 44 30 7 346 342 333 316 305 302 305 322 317 312 322 306 313 313 314 309
183 175 158 165 174 195 174 164 138 125 116 109 105 97 86 75 69 58 66 55 46 40 78 78 55 28 1 334 316 327 302 299 255 280 298 307 313 317 327 313 329 296 295
163 157 163 177 188 174 153 135 132 131 122 112 105 102 91 73 59 57 71 55 52 66 90 80 64 26 333 310 316 318 327 301 326 310 311 321 305 304 297 324 333 326 316
165 168 179 178 154 136 138 135 131 120 118 116 115 96 89 69 49 78 71 72 90 71 62 48 31 12 12 8 338 332 332 319 323 312 315 320 302 331 340 331 313 318 321
165 169 161 148 138 143 136 138 129 126 124 121 113 112 94 65 45 75 96 83 86 77 47 15 344 343 351 9 13 14 3 319 318 319 294 313 292 301 317 316 319 338 325
159 155 154 145 144 144 139 134 131 133 128 122 119 115 99 72 58 72 86 101 88 64 54 2 326 343 356 350 355 0 355 348 344 307 280 275 288 275 313 304 314 305 281
153 154 149 146 143 142 140 135 135 138 139 136 131 125 106 65 63 80 90 92 71 43 354 310 312 331 339 3 348 354 339 330 331 310 254 276 260 278 257 253 277 285 286
156 153 154 150 146 145 143 142 142 137 136 138 139 126 111 79 79 83 79 78 57 8 345 300 296 323 332 358 6 353 331 321 334 331 326 321 321 322 317 312 330 336 320
159 156 151 148 147 150 143 147 141 144 137 132 127 121 122 109 77 94 91 93 65 360 340 342 339 339 343 3 24 359 348 321 334 340 335 331 327 313 324 320 299 300 303
140 139 140 143 144 141 138 129 132 135 129 131 119 123 119 125 93 72 78 80 87 359 340 334 333 343 355 359 14 10 314 316 330 329 320 319 328 331 330 326 298 274 302
137 136 135 135 136 140 135 124 133 136 134 129 126 127 138 128 91 48 46 63 67 98 321 316 312 341 5 2 2 348 354 355 327 333 337 334 337 334 327 323 314 305 265
137 134 132 127 129 135 138 139 132 135 135 142 151 157 170 136 68 51 57 53 37 37 305 295 346 16 3 352 347 357 1 351 334 347 341 320 313 301 303 318 328 327 319
137 138 133 132 131 117 122 140 140 139 134 153 164 172 156 166 209 138 124 16 14 21 351 358 3 359 9 354 356 351 350 351 352 317 323 307 298 329 327 333 314 329 318
133 140 135 128 124 104 72 108 133 148 162 164 175 156 157 193 222 175 177 186 8 340 337 10 12 358 350 344 341 342 337 350 352 333 326 332 330 335 329 331 331 329 335
135 144 143 128 125 123 120 87 41 57 133 120 126 138 160 157 144 162 187 267 297 201 62 43 347 339 344 336 338 332 336 354 339 332 334 334 331 329 328 329 335 340 331
147 143 139 134 138 138 134 133 124 39 58 83 120 130 125 144 138 113 32 81 120 124 76 41 6 345 319 331 343 344 328 317 304 324 329 329 329 330 335 330 331 336 334
147 148 150 147 143 140 147 141 138 146 143 136 94 119 128 137 121 96 66 116 58 35 93 120 71 352 340 346 339 335 321 332 333 329 333 328 327 324 328 333 329 330 329
144 148 143 134 136 140 136 127 130 134 140 133 119 118 158 147 142 69 83 112 142 143 117 108 106 36 344 337 343 334 326 318 322 319 324 329 327 329 327 326 322 329 330
150 145 139 135 135 134 133 136 134 149 145 152 161 173 141 104 151 181 134 139 151 134 147 121 87 29 4 2 351 332 328 334 341 336 333 328 327 322 315 319 323 325 327
147 147 144 135 149 154 154 160 158 157 167 178 184 172 168 156 185 180 182 178 171 155 147 134 111 59 0 4 346 342 332 327 333 326 324 323 324 327 321 313 318 323 319
151 150 152 154 152 158 169 162 161 169 178 172 172 166 168 166 180 180 182 177 173 163 143 138 142 114 120 359 333 340 339 340 338 331 321 317 322 319 319 320 329 333 330
150 150 150 154 166 164 162 155 161 169 172 175 162 157 164 172 176 175 173 157 161 144 140 135 132 133 354 360 352 341 335 323 302 297 301 313 318 320 323 324 333 339 346
151 156 163 167 167 168 171 169 165 172 171 171 171 161 164 168 171 186 164 159 147 140 143 140 140 130 41 19 343 337 320 305 298 296 295 294 314 331 344 344 343 343 352
155 160 166 168 169 167 156 150 160 174 170 161 160 153 156 161 174 178 148 149 140 141 150 149 140 124 63 21 4 356 330 328 332 311 306 319 357 7 356 357 349 351 350
159 160 151 145 155 152 155 155 167 166 165 161 159 157 160 175 179 163 145 146 152 150 154 155 157 151 83 15 6 351 337 351 352 340 334 15 28 15 13 4 0 353 351